When you browse on this site, cookies collect data to enhance your experience and personalize the content and advertising you see.
Visit our Privacy Policy to learn more. By continuing to use the site, you agree to this use of cookies and data.
  • In Czech Republic
  • List of Countries
  • For 7 days
  • Water Temperature
  • Satellite Maps
  • Weather Map
  • Weather Widgets
  • user-avatar
    Login

    Hourly Weather Giumri

    Today, 22 July, Monday

    Time Temperature Precipitation Wind Pressure Humidity
    00:00 +18°C° 0 mm 3 mps 635 mmHg 74%
    01:00 +18°C° 0 mm 3 mps 635 mmHg 75%
    02:00 +18°C° 0 mm 3 mps 635 mmHg 75%
    03:00 +18°C° 0 mm 3 mps 634 mmHg 77%
    04:00 +18°C° 0 mm 2 mps 634 mmHg 77%
    05:00 +18°C° 0 mm 2 mps 634 mmHg 77%
    06:00 +18°C° 0 mm 2 mps 634 mmHg 77%
    07:00 +21°C° 0 mm 2 mps 635 mmHg 70%
    08:00 +24°C° 0 mm 2 mps 635 mmHg 63%
    09:00 +27°C° 0 mm 2 mps 636 mmHg 55%
    10:00 +28°C° 0 mm 3 mps 636 mmHg 52%
    11:00 +30°C° 0 mm 3 mps 636 mmHg 49%
    12:00 +31°C° 0 mm 3 mps 636 mmHg 46%
    13:00 +32°C° 0.2 mm 4 mps 636 mmHg 48%
    14:00 +32°C° 0.2 mm 5 mps 636 mmHg 49%
    15:00 +32°C° 0.2 mm 5 mps 635 mmHg 51%
    16:00 +30°C° 0.1 mm 5 mps 635 mmHg 56%
    17:00 +28°C° 0.1 mm 6 mps 634 mmHg 61%
    18:00 +27°C° 0.1 mm 6 mps 634 mmHg 66%
    19:00 +25°C° 0 mm 5 mps 634 mmHg 69%
    20:00 +22°C° 0 mm 5 mps 634 mmHg 73%
    21:00 +21°C° 0 mm 4 mps 634 mmHg 76%
    22:00 +20°C° 0 mm 4 mps 634 mmHg 79%
    23:00 +20°C° 0 mm 4 mps 634 mmHg 81%

    Tomorrow, 23 July, Tuesday

    Time Temperature Precipitation Wind Pressure Humidity
    00:00 +19°C° 0 mm 3 mps 634 mmHg 83%
    01:00 +19°C° 0 mm 3 mps 634 mmHg 85%
    02:00 +18°C° 0 mm 3 mps 633 mmHg 86%
    03:00 +18°C° 0 mm 2 mps 633 mmHg 87%
    04:00 +18°C° 0 mm 2 mps 633 mmHg 87%
    05:00 +18°C° 0 mm 2 mps 633 mmHg 87%
    06:00 +19°C° 0 mm 2 mps 634 mmHg 86%
    07:00 +20°C° 0 mm 3 mps 634 mmHg 79%
    08:00 +22°C° 0 mm 3 mps 634 mmHg 72%
    09:00 +25°C° 0 mm 3 mps 635 mmHg 65%
    10:00 +26°C° 0 mm 4 mps 635 mmHg 62%
    11:00 +27°C° 0 mm 4 mps 635 mmHg 59%
    12:00 +28°C° 0 mm 4 mps 635 mmHg 56%
    13:00 +28°C° 0.2 mm 4 mps 634 mmHg 57%
    14:00 +28°C° 0.2 mm 4 mps 634 mmHg 58%
    15:00 +28°C° 0.2 mm 5 mps 633 mmHg 58%
    16:00 +27°C° 0.3 mm 5 mps 633 mmHg 63%
    17:00 +26°C° 0.3 mm 5 mps 633 mmHg 67%
    18:00 +25°C° 0.3 mm 5 mps 632 mmHg 71%
    19:00 +22°C° 0.1 mm 5 mps 632 mmHg 75%
    20:00 +21°C° 0.1 mm 4 mps 632 mmHg 80%
    21:00 +19°C° 0.1 mm 4 mps 632 mmHg 84%
    22:00 +19°C° 0 mm 3 mps 632 mmHg 85%
    23:00 +19°C° 0 mm 3 mps 632 mmHg 86%

    Day after tomorrow, 24 July, Wednesday

    Time Temperature Precipitation Wind Pressure Humidity
    00:00 +18°C° 0 mm 2 mps 632 mmHg 87%
    01:00 +18°C° 0 mm 2 mps 632 mmHg 88%
    02:00 +17°C° 0 mm 2 mps 632 mmHg 89%
    03:00 +17°C° 0 mm 2 mps 632 mmHg 90%
    04:00 +17°C° 0 mm 2 mps 632 mmHg 89%
    05:00 +18°C° 0 mm 2 mps 632 mmHg 88%
    06:00 +18°C° 0 mm 2 mps 632 mmHg 87%
    07:00 +20°C° 0 mm 2 mps 633 mmHg 79%
    08:00 +23°C° 0 mm 2 mps 633 mmHg 72%
    09:00 +25°C° 0 mm 2 mps 634 mmHg 65%
    10:00 +26°C° 0.1 mm 2 mps 634 mmHg 57%
    11:00 +28°C° 0.1 mm 2 mps 634 mmHg 49%
    12:00 +30°C° 0.1 mm 2 mps 634 mmHg 42%
    13:00 +30°C° 0 mm 2 mps 634 mmHg 39%
    14:00 +30°C° 0 mm 2 mps 634 mmHg 36%
    15:00 +31°C° 0 mm 2 mps 634 mmHg 34%
    16:00 +30°C° 0.1 mm 3 mps 634 mmHg 41%
    17:00 +28°C° 0.1 mm 4 mps 633 mmHg 48%
    18:00 +27°C° 0.1 mm 5 mps 633 mmHg 55%
    19:00 +25°C° 0 mm 4 mps 633 mmHg 61%
    20:00 +22°C° 0 mm 3 mps 633 mmHg 68%
    21:00 +20°C° 0 mm 2 mps 633 mmHg 75%
    22:00 +19°C° 0 mm 2 mps 633 mmHg 75%
    23:00 +19°C° 0 mm 2 mps 633 mmHg 75%

    25 July, Thursday

    Time Temperature Precipitation Wind Pressure Humidity
    00:00 +19°C° 0 mm 1 mps 633 mmHg 75%
    01:00 +19°C° 0 mm 1 mps 633 mmHg 75%
    02:00 +18°C° 0 mm 1 mps 633 mmHg 75%
    03:00 +18°C° 0 mm 1 mps 632 mmHg 75%
    04:00 +18°C° 0 mm 1 mps 633 mmHg 74%
    05:00 +18°C° 0 mm 1 mps 633 mmHg 72%
    06:00 +19°C° 0 mm 1 mps 633 mmHg 71%
    07:00 +21°C° 0 mm 1 mps 634 mmHg 64%
    08:00 +23°C° 0 mm 1 mps 635 mmHg 57%
    09:00 +25°C° 0 mm 1 mps 635 mmHg 50%
    10:00 +27°C° 0 mm 1 mps 636 mmHg 43%
    11:00 +28°C° 0 mm 2 mps 636 mmHg 35%
    12:00 +30°C° 0 mm 3 mps 636 mmHg 28%
    13:00 +30°C° 0 mm 2 mps 636 mmHg 26%
    14:00 +31°C° 0 mm 2 mps 636 mmHg 23%
    15:00 +32°C° 0 mm 2 mps 636 mmHg 21%
    16:00 +30°C° 0.1 mm 3 mps 635 mmHg 32%
    17:00 +28°C° 0.1 mm 4 mps 635 mmHg 43%
    18:00 +26°C° 0.1 mm 5 mps 634 mmHg 54%
    19:00 +23°C° 0 mm 5 mps 634 mmHg 62%
    20:00 +21°C° 0 mm 4 mps 634 mmHg 71%
    21:00 +18°C° 0 mm 3 mps 633 mmHg 79%
    22:00 +18°C° 0 mm 3 mps 633 mmHg 80%
    23:00 +17°C° 0 mm 3 mps 633 mmHg 81%

    26 July, Friday

    Time Temperature Precipitation Wind Pressure Humidity
    00:00 +17°C° 0 mm 2 mps 633 mmHg 82%
    01:00 +16°C° 0 mm 2 mps 633 mmHg 83%
    02:00 +16°C° 0 mm 2 mps 633 mmHg 84%
    03:00 +15°C° 0 mm 2 mps 632 mmHg 84%
    04:00 +16°C° 0 mm 2 mps 633 mmHg 83%
    05:00 +16°C° 0 mm 2 mps 633 mmHg 82%
    06:00 +16°C° 0 mm 2 mps 633 mmHg 80%
    07:00 +18°C° 0 mm 2 mps 633 mmHg 74%
    08:00 +20°C° 0 mm 2 mps 634 mmHg 67%
    09:00 +23°C° 0 mm 2 mps 634 mmHg 61%
    10:00 +24°C° 0.1 mm 3 mps 634 mmHg 57%
    11:00 +26°C° 0.1 mm 3 mps 634 mmHg 54%
    12:00 +27°C° 0.1 mm 3 mps 635 mmHg 50%
    13:00 +27°C° 0.1 mm 3 mps 634 mmHg 50%
    14:00 +27°C° 0.1 mm 4 mps 634 mmHg 51%
    15:00 +27°C° 0.1 mm 4 mps 633 mmHg 51%
    16:00 +26°C° 0.1 mm 4 mps 633 mmHg 55%
    17:00 +25°C° 0.1 mm 4 mps 633 mmHg 59%
    18:00 +23°C° 0.1 mm 4 mps 632 mmHg 64%
    19:00 +22°C° 0 mm 4 mps 632 mmHg 69%
    20:00 +20°C° 0 mm 4 mps 632 mmHg 75%
    21:00 +18°C° 0 mm 3 mps 632 mmHg 80%
    22:00 +17°C° 0 mm 3 mps 632 mmHg 82%
    23:00 +17°C° 0 mm 3 mps 632 mmHg 83%

    27 July, Saturday

    Time Temperature Precipitation Wind Pressure Humidity
    00:00 +16°C° 0 mm 2 mps 632 mmHg 85%
    01:00 +16°C° 0 mm 2 mps 632 mmHg 86%
    02:00 +16°C° 0 mm 2 mps 631 mmHg 87%
    03:00 +15°C° 0 mm 2 mps 631 mmHg 87%
    04:00 +15°C° 0 mm 2 mps 631 mmHg 86%
    05:00 +16°C° 0 mm 2 mps 631 mmHg 85%
    06:00 +16°C° 0 mm 2 mps 631 mmHg 84%
    07:00 +18°C° 0 mm 2 mps 632 mmHg 78%
    08:00 +19°C° 0 mm 2 mps 632 mmHg 71%
    09:00 +21°C° 0 mm 2 mps 632 mmHg 65%
    10:00 +23°C° 0 mm 2 mps 632 mmHg 62%
    11:00 +24°C° 0 mm 2 mps 632 mmHg 59%
    12:00 +25°C° 0 mm 2 mps 633 mmHg 56%
    13:00 +26°C° 0.1 mm 3 mps 632 mmHg 56%
    14:00 +26°C° 0.1 mm 4 mps 632 mmHg 55%
    15:00 +26°C° 0.1 mm 4 mps 632 mmHg 55%
    16:00 +25°C° 0.3 mm 4 mps 631 mmHg 59%
    17:00 +23°C° 0.3 mm 5 mps 631 mmHg 62%
    18:00 +23°C° 0.3 mm 5 mps 631 mmHg 66%
    19:00 +21°C° 0.3 mm 4 mps 631 mmHg 73%
    20:00 +19°C° 0.3 mm 4 mps 631 mmHg 79%
    21:00 +17°C° 0.3 mm 3 mps 631 mmHg 86%
    22:00 +17°C° 0.1 mm 3 mps 630 mmHg 86%
    23:00 +16°C° 0.1 mm 2 mps 630 mmHg 87%
    Show more